Weather History for Juliana Airport, St. Martin

Change the Weather History Date:

Friday, June 21, 2013

  Actual Average Record
Temperature  
Mean Temperature 84 °F -  
Max Temperature 88 °F 86 °F 91 °F (2001)
Min Temperature 78 °F 77 °F 77 °F (1998)
Cooling Degree Days 18    
Growing Degree Days 34 (Base 50)    
Moisture  
Dew Point 70 °F    
Average Humidity 65    
Maximum Humidity 78    
Minimum Humidity 49    
Precipitation  
Precipitation 0.02 in 0.09 in - ()
Sea Level Pressure  
Sea Level Pressure 30.04 in    
Wind  
Wind Speed 11 mph ()    
Max Wind Speed 16 mph    
Max Gust Speed -    
Visibility 7.0 miles    
Events Rain    
Averages and records for this station are not official NWS values.
T = Trace of Precipitation, MM = Missing Value Source: Averaged Metar Reports

Daily Weather History Graph

Daily Weather History Graph

Search for Another Location

Airport:

Trip Planner

Search our weather history database for the weather conditions in past years. The results will help you decide how hot, cold, wet, or windy it might be!

Date:

Astronomy

Jun. 21, 2013 Rise Set
Actual Time 5:37 AM AST 6:50 PM AST
Civil Twilight 5:13 AM AST 7:14 PM AST
Nautical Twilight 4:45 AM AST 7:43 PM AST
Astronomical Twilight 4:15 AM AST 8:13 PM AST
Moon 5:05 PM AST (6/21) 3:38 AM AST (6/21)
Length of Visible Light 14h 01m
Length of Day
13h 12m
Waxing Gibbous, 95% of the Moon is Illuminated
Jun 21
Waxing Gibbous
Jun 23
Full
Jun 30
Last Quarter
Jul 8
New
Jul 15
First Quarter

Hourly Weather History & Observations

Time (AST) Temp. Heat Index Dew Point Humidity Pressure Visibility Wind Dir Wind Speed Gust Speed Precip Events Conditions
12:00 AM 80.6 °F 83.9 °F 69.8 °F 70% 30.04 in 6.2 mi East 12.7 mph - N/A   Partly Cloudy
1:00 AM 80.6 °F 83.9 °F 69.8 °F 70% 30.04 in 6.2 mi ENE 10.4 mph - N/A   Partly Cloudy
2:00 AM 79 °F - 70 °F 67% 30.02 in 16 mi East 9.2 mph - -   Scattered Clouds
2:00 AM 80.6 °F 84.6 °F 71.6 °F 74% 30.04 in 6.2 mi East 10.4 mph - N/A   Partly Cloudy
3:00 AM 80.6 °F 83.9 °F 69.8 °F 70% 30.01 in 6.2 mi East 10.4 mph - N/A   Partly Cloudy
4:00 AM 80.6 °F 83.9 °F 69.8 °F 70% 30.01 in 6.2 mi East 10.4 mph - N/A   Partly Cloudy
5:00 AM 78.8 °F - 69.8 °F 74% 30.01 in 6.2 mi East 9.2 mph - N/A   Partly Cloudy
6:00 AM 80.6 °F 83.9 °F 69.8 °F 70% 30.04 in 6.2 mi ENE 12.7 mph - N/A   Partly Cloudy
7:00 AM 80.6 °F 83.9 °F 69.8 °F 70% 30.04 in 6.2 mi ENE 12.7 mph - N/A   Partly Cloudy
8:00 AM 83 °F - 70 °F 57% 30.06 in 22 mi ENE 13.8 mph - -   Partly Cloudy
8:00 AM 82.4 °F 86.3 °F 69.8 °F 66% 30.06 in 6.2 mi ENE 13.8 mph - N/A   Scattered Clouds
9:00 AM 84.2 °F 88.4 °F 69.8 °F 62% 30.06 in 6.2 mi ENE 12.7 mph - N/A   Scattered Clouds
10:00 AM 84.2 °F 88.4 °F 69.8 °F 62% 30.06 in 6.2 mi NE 13.8 mph - N/A   Mostly Cloudy
11:00 AM 85 °F - 70 °F 51% 30.07 in 22 mi ENE 16.1 mph - -   Mostly Cloudy
11:00 AM 86.0 °F 90.4 °F 69.8 °F 58% 30.06 in 6.2 mi ENE 16.1 mph - N/A   Mostly Cloudy
12:00 PM 87.8 °F 92.6 °F 69.8 °F 55% 30.04 in 6.2 mi ENE 13.8 mph - N/A   Scattered Clouds
1:00 PM 87.8 °F 91.4 °F 68.0 °F 52% 30.04 in 6.2 mi East 16.1 mph - N/A   Partly Cloudy
2:00 PM 86 °F - 70 °F 49% 30.04 in 28 mi ENE 16.1 mph - -   Mostly Cloudy
2:00 PM 86.0 °F 90.4 °F 69.8 °F 58% 30.04 in 6.2 mi ENE 16.1 mph - N/A   Mostly Cloudy
3:00 PM 86.0 °F 90.4 °F 69.8 °F 58% 30.01 in 6.2 mi ENE 15.0 mph - N/A   Scattered Clouds
4:00 PM 86.0 °F 90.4 °F 69.8 °F 58% 30.01 in 6.2 mi ENE 16.1 mph - N/A   Partly Cloudy
5:00 PM 84 °F - 71 °F 56% 30.01 in 28 mi East 15.0 mph - -   Partly Cloudy
5:00 PM 84.2 °F 88.4 °F 69.8 °F 62% 30.01 in 6.2 mi East 15.0 mph - N/A   Scattered Clouds
6:00 PM 80.6 °F 84.6 °F 71.6 °F 74% 30.01 in 6.2 mi East 13.8 mph - N/A   Partly Cloudy
7:00 PM 80.6 °F 84.6 °F 71.6 °F 74% 30.04 in 6.2 mi ENE 12.7 mph - N/A   Partly Cloudy
8:00 PM 81 °F - 71 °F 66% 30.05 in 22 mi East 13.8 mph - -   Partly Cloudy
8:00 PM 80.6 °F 84.6 °F 71.6 °F 74% 30.04 in 6.2 mi ENE 13.8 mph - N/A   Scattered Clouds
9:00 PM 80.6 °F 84.6 °F 71.6 °F 74% 30.04 in 6.2 mi ENE 13.8 mph - N/A   Scattered Clouds
10:00 PM 80.6 °F 84.6 °F 71.6 °F 74% 30.06 in 6.2 mi East 12.7 mph - N/A   Scattered Clouds
11:00 PM 79 °F - 72 °F 73% 30.07 in 16 mi East 11.5 mph - - Rain Light Rain Showers
11:00 PM 78.8 °F - 71.6 °F 78% 30.06 in 6.2 mi East 11.5 mph - N/A   Scattered Clouds